CZ-6A DEB, 54472

Orbit data source: Space-Track

CZ-6A DEB, 54472 is space debris in SSO originally from a launch on Fri, 11 Nov 2022 UTC launched from the Taiyaun Space Center, China (TSC). Debris objects in space refer to the collection of defunct objects orbiting the Earth. Examples of debris include non-operational satellites, rocket bodies, and fragments generated from explosions, collisions, or faulty payload assembly.

Loading next visibility...
Identifier
54472, 2022-151GY
Orbit
SSO
Country
Flag of CNCN / PRC
Related business
Manufacturer
SAST
Mission
Spacecraft
Bus & Motor
Unknown
Mass
Unknown
Launch date (UTC)
2022-11-11 (4 years ago)
Launch vehicle
Unknown
Launch site
Taiyaun Space Center, China (TSC)
Object type
Payload
Rocket body
Debris
Shape & HBR
Unknown shape, 0.1 m
Radar Cross Section
Medium (>0.1 m² and <1 m²)

Expand to show TLE details & history
Last TLE update: 11 hours ago

TLE from 11 hours ago
0 CZ-6A DEB
1 54472U 22151GY  26237.84578242  .00000079  00000-0  58129-4 0  9998
2 54472  98.7846 257.7337 0004073 187.2456 172.8662 14.19923890195932
Epoch: 2026-08-25T20:17Z
TLE epoch observation values (Epoch: 2026-08-25T20:17:55.601Z)
Latitude
Longitude
-20.85525°
Altitude
831.434 km
Speed
7.436 km/s
True Right ascension
17h 10m 56s
True Declination
0° 00' 00"
Sunlit
Object was in daylight at epoch
Visualization orbit readout
Latitude
Unknown
Longitude
Unknown
Altitude
Unknown
Speed
Unknown
Apparent Right ascension
Unknown
Apparent Declination
Unknown
Sunlit
N/A
Visualization observer readout
Local Sidereal Time
22:15:39
Azimuth
Unknown
Elevation
Unknown
Doppler factor
Unknown
Orbital elements
Apogee altitude
825.705 km
Perigee altitude
819.84 km
Semi-major axis
7,200.91 km
Eccentricity
0.00041
Inclination
98.7846°
RAAN
257.7337°
Arg. of periapsis
187.2456°
True anomaly
172.87199°
Mean anomaly
172.8662°
Eccentric anomaly
172.8691°
Mean motion
3.55191 °/min
Orbital period
101.35 mins
BSTAR
0.000058129
Loading maneuver chart data...
Computing Atmospheric mass density...
Loading historical data...
Loading historical data...
Loading historical data...
Loading historical data...
Loading historical data...
Loading historical data...
Loading historical data...

Documentation

Showing up to 5 results
|